IZ3VCM Weather Reports


Display with metric or nautical units.
time (UTC)temp
F
wind
direction
speed
MPH
gust
MPH
rain 1hr
in
rain 24hr
in
rain mn
in
humidity
%
barometer
mb
20260507064502 61 0 0.0 0.0 0.00 0.24 0.00 88 1012.7
20260506221503 56 0 0.0 0.0 0.00 0.28 0.00 91 1010.4
20260506220005 56 0 0.0 0.0 0.00 0.28 0.00 91 1010.3
20260506214503 56 0 0.0 0.0 0.00 0.28 0.28 91 1010.2
20260506213005 56 0 0.0 0.0 0.00 0.28 0.28 91 1010.2
20260506211503 57 0 0.0 0.0 0.00 0.28 0.28 90 1010.2
20260506210005 58 0 0.0 0.0 0.00 0.28 0.28 90 1010.2
20260506204504 58 0 0.0 0.0 0.00 0.28 0.28 90 1010.3
20260506203006 58 0 0.0 0.0 0.00 0.28 0.28 90 1010.0
20260506201503 58 0 0.0 0.0 0.00 0.28 0.28 89 1010.0
20260506200005 58 0 0.0 0.0 0.00 0.28 0.28 89 1009.7
20260506194503 59 0 0.0 0.0 0.00 0.28 0.28 89 1009.4
20260506193005 59 0 0.0 0.0 0.00 0.28 0.28 88 1009.3
20260506191503 60 0 0.0 0.0 0.00 0.28 0.28 87 1009.0
20260506190007 61 0 0.0 0.0 0.00 0.28 0.28 87 1008.9
20260506184502 62 0 0.0 0.0 0.00 0.28 0.28 86 1008.9
20260506183006 62 0 0.0 0.0 0.00 0.28 0.28 85 1008.7
20260506181503 62 0 0.0 0.0 0.00 0.28 0.28 85 1008.7
20260506173006 63 45 1.0 3.0 0.00 0.28 0.28 82 1008.3
20260506171502 65 23 1.0 4.0 0.00 0.28 0.28 83 1008.4
20260506170005 65 0 0.0 0.0 0.00 0.28 0.28 84 1008.2
20260506164504 65 112 2.0 4.0 0.00 0.28 0.28 83 1008.2
20260506163006 66 117 3.0 5.0 0.00 0.28 0.28 81 1008.0
20260506161503 68 0 0.0 0.0 0.00 0.28 0.28 77 1008.2
20260506160005 68 0 0.0 0.0 0.00 0.28 0.28 77 1008.3
20260506154504 69 94 4.0 7.0 0.00 0.28 0.28 79 1008.1
20260506153005 70 116 3.0 6.0 0.00 0.28 0.28 79 1008.1
20260506151503 68 93 2.0 6.0 0.00 0.28 0.28 79 1008.1
20260506150007 69 112 2.0 4.0 0.00 0.28 0.28 77 1008.2
20260506144503 70 0 0.0 0.0 0.00 0.28 0.28 74 1008.1
20260506143005 71 0 0.0 0.0 0.00 0.28 0.28 74 1008.2
20260506141503 70 183 2.0 5.0 0.00 0.28 0.28 78 1008.3
20260506140006 70 90 0.0 2.0 0.00 0.28 0.28 82 1008.5
20260506134504 67 0 0.0 0.0 0.00 0.28 0.28 83 1008.8
20260506133006 66 112 0.0 2.0 0.00 0.28 0.28 84 1008.7
20260506131503 67 0 0.0 0.0 0.00 0.28 0.28 83 1008.9
20260506130006 66 0 0.0 0.0 0.05 0.28 0.28 87 1008.9
20260506124503 65 0 0.0 0.0 0.21 0.28 0.28 88 1009.0
20260506123006 64 0 0.0 0.0 0.21 0.28 0.28 89 1009.0
20260506121503 62 0 0.0 0.0 0.21 0.28 0.28 89 1009.0
20260506120006 62 111 3.0 6.0 0.16 0.24 0.23 88 1009.0
20260506114503 64 66 1.0 4.0 0.00 0.07 0.07 86 1009.1
20260506113006 65 91 3.0 6.0 0.00 0.07 0.07 84 1009.3
20260506111503 64 120 5.0 8.0 0.00 0.07 0.07 85 1009.6
20260506110005 64 115 3.0 5.0 0.00 0.07 0.07 84 1009.6
20260506104502 66 128 6.0 9.0 0.02 0.07 0.07 84 1009.7
20260506103005 65 108 5.0 6.0 0.02 0.07 0.07 87 1009.8
20260506101503 65 112 5.0 5.0 0.02 0.07 0.07 88 1009.9
20260506100005 63 112 4.0 4.0 0.02 0.07 0.07 88 1010.0
20260506094502 62 80 4.0 5.0 0.00 0.07 0.05 88 1010.0
20260506093006 63 102 7.0 9.0 0.00 0.07 0.05 88 1010.3
20260506091503 62 111 3.0 3.0 0.00 0.10 0.05 90 1010.2
20260506090004 60 112 3.0 3.0 0.00 0.10 0.05 89 1010.1
20260506084503 60 124 3.0 4.0 0.00 0.10 0.05 89 1010.3
20260506083005 61 124 5.0 6.0 0.00 0.10 0.05 89 1010.2
20260506081502 62 101 2.0 3.0 0.00 0.10 0.05 89 1010.0
20260506073005 61 112 4.0 4.0 0.00 0.14 0.05 91 1010.1
20260506071503 59 0 0.0 0.0 0.00 0.14 0.05 91 1009.9